TimeEST,TemperatureF,Dew PointF,Humidity,Sea Level PressureIn,VisibilityMPH,Wind Direction,Wind SpeedMPH,Gust SpeedMPH,PrecipitationIn,Events,Conditions,WindDirDegrees,DateUTC
12:19 AM,37.4,37.4,100,29.99,5.0,NE,4.6,-,0.04,Rain,Light Rain,50,2012-12-08 05:19:00
12:32 AM,39.2,37.4,93,29.99,5.0,Calm,Calm,-,0.06,Rain,Light Rain,0,2012-12-08 05:32:00
12:54 AM,39.0,37.9,96,30.00,5.0,Calm,Calm,-,0.10,Rain,Rain,0,2012-12-08 05:54:00
1:30 AM,39.2,39.2,100,29.97,6.0,Calm,Calm,-,0.03,Rain,Light Rain,0,2012-12-08 06:30:00
1:54 AM,39.0,39.0,100,29.99,5.0,Calm,Calm,-,0.05,Rain,Light Rain,0,2012-12-08 06:54:00
2:05 AM,39.2,39.2,100,29.97,4.0,North,3.5,-,0.02,Rain,Light Rain,10,2012-12-08 07:05:00
2:29 AM,39.2,39.2,100,29.95,4.0,NE,3.5,-,0.02,,Overcast,40,2012-12-08 07:29:00
2:54 AM,39.0,39.0,100,29.96,3.0,Calm,Calm,-,0.03,Rain,Light Rain,0,2012-12-08 07:54:00
3:54 AM,39.9,39.0,97,29.94,5.0,Calm,Calm,-,0.01,,Overcast,0,2012-12-08 08:54:00
4:54 AM,39.9,39.9,100,29.93,4.0,Calm,Calm,-,N/A,,Overcast,0,2012-12-08 09:54:00
5:13 AM,39.2,39.2,100,29.91,2.5,Calm,Calm,-,N/A,,Overcast,0,2012-12-08 10:13:00
5:54 AM,39.9,39.9,100,29.93,2.0,Variable,3.5,-,N/A,,Overcast,0,2012-12-08 10:54:00
6:54 AM,41.0,41.0,100,29.93,1.8,Calm,Calm,-,N/A,,Overcast,0,2012-12-08 11:54:00
7:54 AM,41.0,41.0,100,29.93,1.0,Calm,Calm,-,N/A,,Mist,0,2012-12-08 12:54:00
8:04 AM,41.0,41.0,100,29.91,1.2,Calm,Calm,-,N/A,,Overcast,0,2012-12-08 13:04:00
8:54 AM,42.1,42.1,100,29.94,1.5,Calm,Calm,-,N/A,,Overcast,0,2012-12-08 13:54:00
9:12 AM,42.8,42.8,100,29.92,2.0,Calm,Calm,-,N/A,,Overcast,0,2012-12-08 14:12:00
9:43 AM,42.8,42.8,100,29.92,3.0,Calm,Calm,-,N/A,,Overcast,0,2012-12-08 14:43:00
9:54 AM,44.1,43.0,96,29.94,4.0,Calm,Calm,-,N/A,,Overcast,0,2012-12-08 14:54:00
10:54 AM,46.0,45.0,96,29.93,4.0,SW,3.5,-,N/A,,Overcast,230,2012-12-08 15:54:00
11:54 AM,46.9,46.0,97,29.91,7.0,WSW,4.6,-,N/A,,Overcast,250,2012-12-08 16:54:00
12:54 PM,46.9,45.0,93,29.90,10.0,WSW,3.5,-,N/A,,Overcast,240,2012-12-08 17:54:00
1:01 PM,46.4,44.6,93,29.88,10.0,WSW,5.8,-,N/A,,Overcast,240,2012-12-08 18:01:00
1:54 PM,46.9,46.0,97,29.89,8.0,SSW,3.5,-,N/A,,Overcast,210,2012-12-08 18:54:00
2:54 PM,46.9,46.0,97,29.91,8.0,WSW,5.8,-,N/A,,Overcast,240,2012-12-08 19:54:00
3:54 PM,46.9,46.0,97,29.92,6.0,Variable,3.5,-,N/A,,Overcast,0,2012-12-08 20:54:00
4:51 PM,46.4,46.4,100,29.91,6.0,Calm,Calm,-,N/A,,Overcast,0,2012-12-08 21:51:00
4:54 PM,46.9,46.9,100,29.93,6.0,Calm,Calm,-,N/A,,Overcast,0,2012-12-08 21:54:00
5:35 PM,48.2,46.4,93,29.92,6.0,Calm,Calm,-,N/A,,Overcast,0,2012-12-08 22:35:00
5:54 PM,48.0,46.9,96,29.93,6.0,Calm,Calm,-,N/A,,Overcast,0,2012-12-08 22:54:00
6:54 PM,46.9,46.0,97,29.95,4.0,Calm,Calm,-,N/A,,Overcast,0,2012-12-08 23:54:00
7:54 PM,46.9,46.0,97,29.97,4.0,Calm,Calm,-,0.00,Rain,Light Rain,0,2012-12-09 00:54:00
8:37 PM,46.4,46.4,100,29.97,2.5,Calm,Calm,-,0.00,,Overcast,0,2012-12-09 01:37:00
8:54 PM,46.9,46.9,100,29.99,3.0,Calm,Calm,-,0.00,,Overcast,0,2012-12-09 01:54:00
9:54 PM,46.9,46.9,100,30.00,4.0,Calm,Calm,-,0.00,,Overcast,0,2012-12-09 02:54:00
10:54 PM,46.9,46.9,100,30.01,4.0,Calm,Calm,-,0.03,Rain,Light Rain,0,2012-12-09 03:54:00
11:04 PM,46.4,46.4,100,30.00,4.0,Calm,Calm,-,0.00,Rain,Light Rain,0,2012-12-09 04:04:00
11:47 PM,46.4,46.4,100,30.01,3.0,Calm,Calm,-,0.00,,Overcast,0,2012-12-09 04:47:00
11:54 PM,46.9,46.9,100,30.03,3.0,Calm,Calm,-,0.00,,Overcast,0,2012-12-09 04:54:00